Temperature
19 18 18 18 17 16 15 14 13 12 12 12 12 12 12 13 13 13 13 14 14 14 14 14 13 13 13 13 13 13 13 13 13 13 13 14 14 14 14 15 15 15 15 15
19 19 19 18 17 17 16 15 14 13 13 13 13 13 14 14 14 14 14 14 15 15 15 14 14 14 13 13 12 12 12 12 12 13 13 13 13 14 14 14 14 14 15 15
20 20 19 18 17 17 16 16 15 14 14 14 14 15 15 15 15 15 15 15 15 15 15 15 14 14 13 13 12 12 12 12 12 12 12 12 12 13 13 13 13 14 14 14
21 21 18 17 18 17 16 16 16 16 16 15 15 15 15 15 15 15 15 15 15 15 15 15 15 15 14 13 12 12 12 12 12 12 12 12 12 12 12 12 12 12 13 13
21 20 18 18 18 18 17 17 17 17 17 17 17 16 16 16 16 15 15 15 15 15 15 15 15 15 14 13 13 12 12 12 11 11 11 12 12 12 12 11 11 12 12 12
20 20 19 18 19 18 18 17 17 17 17 17 17 16 16 16 16 15 15 15 15 15 15 15 15 15 14 14 13 12 12 12 12 12 12 12 12 11 11 11 11 11 11 11
20 21 19 19 18 18 17 17 18 17 17 17 17 16 16 16 16 15 15 15 15 15 15 15 15 15 15 14 13 12 12 12 12 12 12 12 12 11 11 11 11 11 11 11
21 20 18 18 18 18 18 18 18 17 17 16 16 16 16 16 16 16 15 15 15 15 15 15 15 15 15 14 13 13 13 12 12 12 12 11 11 11 11 10 10 10 10 10
20 18 18 18 18 18 18 18 17 17 16 16 16 16 16 16 16 15 15 15 15 15 15 15 15 15 15 14 14 13 13 13 12 12 11 11 11 11 11 10 10 10 10 10
20 19 18 18 17 16 17 17 16 16 16 16 16 16 16 16 16 15 15 15 15 15 15 15 15 15 15 14 14 14 14 13 13 12 11 11 11 11 11 11 10 10 10 10
20 20 18 17 17 16 16 16 16 16 15 15 15 16 16 16 15 15 15 15 15 15 15 15 16 15 15 15 14 15 14 13 13 12 12 11 11 11 11 10 10 10 10 10
20 20 19 18 17 17 16 16 16 16 16 15 15 15 15 15 15 15 15 15 15 15 15 15 15 15 15 15 14 14 14 13 13 12 12 11 11 11 11 10 10 10 10 10
21 20 19 18 17 16 16 16 16 16 16 15 15 15 15 15 15 15 15 15 15 15 15 15 15 15 15 15 14 14 14 13 13 12 12 12 11 11 11 10 10 10 10 10
19 19 18 18 17 16 16 16 16 16 15 15 15 15 15 15 15 15 15 15 15 15 15 15 15 15 15 15 14 14 14 13 13 12 12 12 11 11 11 10 10 10 9 9
18 18 18 17 17 16 16 16 16 16 16 15 15 15 15 15 15 15 15 15 15 15 15 15 15 15 15 15 14 14 13 13 12 12 12 12 12 11 11 11 10 10 9 9
18 18 18 17 16 16 16 16 16 16 16 16 15 15 15 14 14 15 15 15 15 15 15 15 15 15 15 14 14 14 13 13 12 12 12 12 12 12 11 11 10 10 10 9
18 17 17 17 16 16 16 16 16 16 16 15 15 15 14 14 15 15 15 15 15 15 15 15 15 15 15 14 14 14 14 13 13 12 12 12 12 12 11 11 10 10 10 9
18 17 17 17 16 16 16 16 16 16 16 15 15 14 14 14 15 14 14 14 14 15 14 14 15 15 14 14 14 14 14 14 13 13 12 12 12 12 11 11 11 10 10 9
18 18 17 17 17 16 16 16 16 16 15 15 14 14 14 14 14 14 14 14 14 14 14 14 15 15 14 14 14 14 14 14 13 13 12 12 12 12 11 11 11 10 10 9
18 18 17 17 17 17 16 16 15 15 15 14 14 14 14 14 14 14 13 13 14 13 14 14 14 14 14 14 14 14 14 14 13 13 13 12 12 12 12 11 11 10 10 9
17 17 17 17 17 16 16 16 15 15 14 14 14 13 13 13 13 13 13 13 13 13 14 14 13 13 14 14 14 14 14 14 14 13 13 13 12 12 12 12 11 10 10 9
17 17 17 17 16 16 16 15 15 14 14 14 13 13 13 13 13 13 13 13 13 13 13 13 13 13 14 14 14 14 14 14 13 13 13 13 12 12 12 12 11 11 10 10
16 16 16 16 16 15 15 15 15 14 14 13 13 13 13 13 13 13 13 13 13 13 13 13 13 14 14 14 14 14 14 14 13 13 13 13 12 12 12 12 11 11 10 10
16 16 16 16 16 15 15 15 15 14 14 13 13 13 13 13 13 13 13 13 13 13 13 14 14 14 14 14 14 13 13 14 14 13 13 13 13 12 12 12 11 11 11 10
15 15 16 16 15 15 15 15 15 14 14 13 13 13 13 13 13 13 13 12 13 13 14 14 14 13 13 13 13 13 13 13 13 13 13 13 13 13 12 12 11 11 11 10
13 14 14 15 15 15 15 15 15 14 14 13 13 13 13 13 13 13 13 13 13 13 13 13 13 13 13 12 13 13 13 13 13 13 13 13 13 13 13 12 12 11 11 11
12 13 13 13 14 14 14 14 14 14 14 13 13 13 13 12 12 13 13 13 13 13 13 13 13 12 12 12 13 13 13 12 13 13 13 13 13 13 12 12 12 12 11 11
Wind_Speed
7 4 5 8 10 11 11 7 5 4 5 5 6 7 7 7 7 7 8 8 7 7 6 6 6 6 6 6 5 5 5 6 6 4 4 3 3 4 5 5 5 6 6 6
5 4 3 6 9 9 8 8 6 5 3 3 5 5 6 7 7 8 9 10 8 7 7 7 7 7 7 7 7 7 8 7 7 6 6 6 6 6 6 7 8 8 9 9
3 5 2 4 7 7 7 6 4 4 1 4 5 6 7 7 8 9 9 9 9 9 8 8 8 7 8 8 7 8 8 8 8 8 8 8 8 8 8 8 9 9 9 9
2 3 3 5 6 5 5 4 3 2 1 3 3 2 4 6 8 9 9 9 9 8 8 8 8 7 7 8 9 8 8 8 8 8 8 7 8 8 8 7 7 7 8 7
4 2 7 6 6 4 2 4 3 1 1 3 3 2 6 9 7 7 8 7 8 8 7 7 8 8 7 8 8 8 8 8 8 8 8 8 8 7 6 6 6 6 6 7
4 4 2 6 9 6 3 4 5 1 3 5 5 4 6 8 7 7 6 6 7 7 7 7 6 6 7 8 8 8 8 7 7 7 7 8 8 8 6 6 6 5 5 5
5 2 5 9 10 6 2 5 6 4 5 8 9 6 5 6 7 6 6 6 7 7 6 5 5 5 7 7 7 6 6 6 7 7 7 8 7 7 7 6 6 6 6 5
2 2 4 11 8 3 6 8 6 5 6 6 5 5 6 6 6 6 6 6 6 6 6 5 4 5 5 5 4 4 4 4 5 6 7 7 6 7 7 7 7 7 7 6
3 4 8 9 5 6 5 6 6 6 5 4 4 5 6 6 6 6 7 6 6 6 6 6 5 5 4 3 2 3 3 3 4 6 6 7 7 7 7 7 6 6 6 6
2 6 9 8 7 6 4 5 6 5 4 3 4 5 5 5 6 6 7 6 6 7 7 7 5 4 4 3 2 1 4 4 6 6 6 7 6 6 6 7 7 7 7 7
4 6 9 9 8 9 7 6 6 5 3 3 3 4 5 5 6 6 6 6 6 6 6 7 5 5 5 5 5 2 4 5 6 6 5 6 6 6 6 6 5 5 5 6
3 7 7 11 12 11 10 8 7 6 5 3 2 3 5 5 5 5 6 7 6 6 6 7 7 6 6 5 5 5 5 6 4 4 4 5 6 5 8 7 8 9 9 8
2 5 4 10 14 13 11 10 8 6 4 3 2 2 3 4 4 5 6 7 7 6 6 7 7 7 6 5 5 5 6 5 5 4 3 3 4 5 4 3 5 8 9 9
5 6 7 8 12 12 11 10 9 7 6 4 2 1 2 4 4 5 6 6 7 6 6 6 7 7 6 5 4 4 6 5 3 3 3 4 4 3 3 4 2 2 3 5
8 7 7 8 11 11 10 9 9 8 7 6 4 2 1 3 4 4 5 6 7 6 6 6 6 6 6 5 4 5 5 4 4 3 2 3 3 3 4 5 4 3 2 2
10 8 9 11 11 11 10 10 9 8 7 6 4 3 1 1 3 3 4 5 6 5 5 6 7 6 5 4 2 4 5 4 3 2 0 2 2 3 3 4 4 4 5 4
13 12 11 12 12 12 11 10 9 8 7 7 5 3 2 3 3 2 3 5 5 4 4 6 6 7 6 5 3 2 5 4 1 4 1 2 2 3 3 4 4 5 4 3
13 12 11 12 11 11 11 10 8 7 5 6 5 3 4 3 2 3 4 5 5 4 6 7 6 8 7 3 4 3 1 5 4 2 2 3 2 2 3 3 4 5 4 3
12 12 12 11 11 11 10 9 8 6 5 5 5 5 4 2 2 3 4 5 4 4 5 7 10 9 4 5 4 4 3 1 2 3 4 4 2 1 3 3 3 4 4 4
10 11 12 11 11 10 9 8 8 7 6 6 6 5 4 4 2 2 4 4 1 3 4 6 7 7 5 6 5 5 5 2 2 2 3 3 3 2 3 4 4 3 3 4
9 10 10 10 10 9 9 9 8 7 6 6 6 5 5 4 2 2 3 3 2 5 4 8 5 3 5 6 6 6 6 4 2 2 3 4 3 3 3 4 5 4 4 4
8 9 10 9 9 9 8 8 8 8 7 7 7 6 5 4 4 4 4 4 2 4 2 5 3 4 6 7 5 6 6 4 3 2 2 2 2 3 3 3 4 4 4 4
8 9 10 10 11 11 10 9 9 8 8 8 8 7 7 5 4 3 3 1 3 4 1 4 3 6 9 7 6 6 6 5 4 3 3 3 3 3 3 4 4 4 4 4
5 7 9 10 11 11 12 11 9 8 8 7 7 7 6 5 4 4 5 5 6 4 3 5 7 9 9 6 7 7 5 4 4 3 3 4 3 3 3 4 4 4 5 5
5 5 7 8 9 9 9 10 10 9 8 7 7 8 6 5 4 4 3 2 6 6 5 6 8 10 8 7 6 5 4 2 1 2 2 2 3 3 2 3 5 5 5 5
5 4 4 5 5 4 5 6 6 6 7 6 6 5 6 5 6 5 4 4 6 7 5 5 6 8 6 4 4 5 5 3 3 4 4 3 4 5 4 4 5 5 5 5
6 4 2 3 3 3 3 3 4 6 7 7 6 6 6 6 6 6 7 6 6 5 6 6 5 5 4 3 4 5 5 5 3 3 4 5 5 5 6 6 5 5 4 4
Wind_Direction
88 82 52 47 43 45 52 56 61 60 40 358 331 328 328 334 348 8 14 12 13 10 13 24 31 34 30 34 34 39 42 37 27 22 9 1 356 343 336 343 347 350 1 10
137 128 92 69 58 57 57 58 82 91 61 312 307 318 351 3 13 24 21 13 9 17 20 30 36 41 38 40 44 45 44 38 31 34 31 27 25 25 24 25 20 18 23 38
129 151 202 77 60 67 70 69 67 62 17 307 332 358 11 13 21 27 22 11 5 17 26 28 31 45 53 46 45 46 49 44 38 37 37 34 29 26 35 44 37 33 32 40
286 183 67 92 109 107 98 97 94 78 299 289 301 339 24 30 25 24 17 10 2 7 24 28 24 40 56 59 49 41 41 47 43 37 35 35 36 36 36 42 47 43 34 37
333 51 125 144 156 163 135 123 132 76 343 303 243 166 59 38 29 27 15 5 355 357 17 27 21 29 50 60 56 42 34 40 42 37 31 28 31 39 38 37 43 55 40 33
298 320 69 136 137 154 220 146 137 116 23 12 33 69 40 24 26 23 18 5 351 353 13 17 13 22 44 54 53 44 31 31 36 36 39 32 23 21 27 32 30 50 52 39
292 321 98 123 138 175 241 117 129 106 54 42 45 45 26 16 21 13 14 12 358 352 0 354 360 23 52 52 55 55 40 33 33 30 50 49 27 21 23 26 25 27 37 35
298 294 130 144 163 193 100 115 126 100 68 55 41 34 26 18 18 11 6 14 4 348 340 336 11 30 54 64 62 74 65 47 51 51 45 46 41 34 30 22 28 28 22 20
7 62 106 151 147 102 123 132 115 101 82 57 38 31 23 15 19 13 5 11 355 342 344 353 23 31 40 70 57 100 83 60 72 77 71 50 44 40 33 28 27 24 19 15
236 164 159 173 147 140 167 123 113 110 102 59 33 27 17 15 24 12 2 359 354 7 5 344 351 31 48 40 327 127 110 79 77 73 76 70 49 45 44 29 22 17 16 13
235 148 152 179 175 168 169 150 146 142 122 81 36 19 8 22 23 4 355 358 11 17 347 332 358 42 55 24 341 15 93 87 84 81 86 89 73 46 50 59 41 24 8 9
228 168 172 182 179 173 170 173 170 162 153 136 87 23 9 23 18 2 2 6 6 3 350 353 12 35 52 27 349 21 68 71 72 87 97 121 123 97 56 66 62 58 47 37
76 126 139 152 167 171 175 180 175 169 165 156 125 62 12 7 18 14 10 6 354 356 3 8 19 32 30 23 5 31 64 64 64 48 57 87 125 142 137 94 61 56 51 47
132 144 135 150 160 169 180 179 173 176 175 173 134 58 10 358 17 16 9 357 342 350 16 18 28 32 14 3 2 54 88 80 75 65 48 59 67 81 106 126 126 110 62 46
170 175 159 157 157 172 178 177 182 188 186 175 164 182 47 7 3 356 359 353 338 356 20 19 31 25 2 350 4 49 63 64 54 52 56 80 81 80 87 90 87 80 82 43
179 186 165 167 172 179 182 188 194 199 188 176 172 180 147 320 303 322 358 349 335 353 10 20 29 8 344 335 22 89 88 61 20 340 2 101 92 89 89 90 89 76 59 29
181 189 183 181 182 186 191 196 204 205 187 177 179 169 238 266 280 359 0 332 317 329 32 38 27 346 324 318 315 151 141 134 215 288 320 78 80 91 97 93 93 92 85 49
189 191 191 190 188 189 194 198 205 206 187 169 149 180 242 264 314 355 334 321 322 0 50 37 13 326 304 344 352 351 161 167 192 197 100 67 41 85 104 106 113 120 134 139
188 189 192 195 191 190 192 194 193 193 187 164 169 211 230 252 296 321 321 318 329 9 23 13 341 314 319 73 13 316 296 188 172 151 127 124 246 208 134 121 115 119 130 130
193 189 191 193 191 187 187 187 185 187 184 176 186 208 223 229 218 277 302 302 339 73 3 345 319 313 4 53 8 314 302 270 214 181 158 170 215 193 151 141 133 130 134 136
202 195 194 194 188 186 185 184 181 180 178 178 195 212 221 224 206 233 267 289 76 76 347 312 299 1 21 355 317 293 290 282 243 213 177 183 203 189 179 166 154 151 147 144
212 205 200 196 188 187 188 191 184 180 182 183 194 217 226 227 234 238 237 223 164 112 319 305 4 27 343 325 289 277 276 277 267 233 189 194 196 191 192 171 154 151 149 146
217 211 206 203 199 196 194 199 195 184 186 190 194 204 215 216 220 232 262 208 123 115 290 296 338 319 318 307 280 266 250 241 236 223 199 198 203 201 194 169 158 152 152 154
245 223 212 206 204 202 201 200 200 187 180 185 197 206 211 206 209 216 226 209 177 171 252 274 279 287 297 285 274 270 260 233 211 216 209 189 191 201 195 171 164 163 164 164
291 262 234 214 212 210 207 197 194 190 182 185 195 201 208 207 208 220 243 211 168 184 241 270 267 270 274 273 280 296 305 297 204 179 195 187 184 189 205 183 174 174 174 173
319 302 292 256 233 215 208 197 189 182 182 185 195 199 199 196 198 201 214 242 241 224 227 250 260 261 263 284 322 320 307 287 218 193 206 213 205 192 201 210 197 186 182 180
319 303 287 287 279 254 240 219 198 191 185 185 193 200 203 201 195 198 207 216 225 222 222 229 241 255 270 280 280 281 282 283 269 218 206 209 212 205 197 199 198 191 179 173
Height
1551 1553 1553 1556 1557 1557 1560 1564 1570 1573 1572 1570 1565 1562 1558 1554 1550 1547 1543 1539 1536 1533 1530 1527 1524 1521 1518 1515 1513 1511 1510 1509 1508 1508 1508 1508 1508 1508 1508 1508 1508 1508 1508 1509
1550 1551 1552 1555 1557 1559 1562 1564 1568 1570 1571 1567 1564 1561 1558 1555 1552 1549 1546 1543 1539 1537 1534 1531 1528 1525 1523 1520 1518 1515 1513 1512 1511 1510 1509 1509 1509 1508 1508 1508 1508 1508 1508 1508
1545 1547 1550 1558 1560 1561 1563 1564 1566 1569 1570 1566 1564 1561 1559 1557 1554 1552 1549 1546 1543 1540 1538 1535 1532 1529 1527 1524 1522 1520 1518 1516 1515 1513 1512 1511 1510 1510 1509 1508 1508 1507 1507 1507
1541 1544 1560 1564 1558 1561 1563 1564 1565 1565 1565 1564 1562 1561 1560 1558 1556 1554 1552 1549 1546 1543 1541 1539 1536 1533 1531 1528 1526 1524 1522 1520 1519 1517 1516 1514 1513 1512 1511 1510 1509 1508 1507 1507
1543 1547 1557 1559 1557 1559 1561 1563 1563 1563 1563 1561 1559 1561 1561 1560 1558 1557 1554 1552 1549 1547 1544 1542 1540 1537 1535 1532 1530 1528 1526 1524 1522 1520 1519 1517 1516 1515 1513 1512 1511 1510 1509 1508
1545 1547 1554 1555 1554 1557 1561 1562 1562 1562 1562 1560 1559 1561 1563 1561 1559 1558 1556 1554 1551 1549 1547 1544 1542 1540 1537 1535 1533 1531 1529 1528 1526 1523 1522 1520 1518 1517 1516 1514 1513 1512 1511 1509
1544 1544 1549 1550 1554 1558 1563 1563 1561 1562 1562 1562 1562 1564 1564 1562 1560 1559 1557 1555 1552 1550 1548 1546 1544 1542 1539 1538 1536 1534 1532 1530 1528 1526 1524 1522 1520 1519 1517 1516 1515 1514 1513 1511
1543 1546 1555 1550 1554 1555 1557 1558 1560 1562 1563 1564 1564 1564 1563 1562 1561 1559 1557 1555 1553 1550 1548 1547 1545 1543 1541 1539 1538 1536 1534 1532 1531 1529 1527 1525 1523 1521 1519 1518 1517 1516 1515 1514
1543 1549 1547 1550 1552 1554 1556 1558 1560 1562 1564 1564 1565 1564 1563 1562 1561 1559 1557 1555 1553 1551 1549 1547 1546 1544 1542 1541 1539 1538 1536 1535 1533 1531 1529 1527 1525 1523 1521 1520 1519 1518 1517 1515
1542 1543 1547 1550 1551 1554 1556 1558 1560 1562 1564 1564 1565 1564 1563 1562 1561 1559 1557 1555 1553 1551 1549 1548 1546 1545 1543 1542 1540 1539 1538 1537 1535 1534 1532 1530 1528 1526 1524 1523 1521 1520 1519 1517
1540 1540 1545 1548 1550 1553 1556 1558 1560 1562 1563 1564 1564 1564 1564 1563 1561 1559 1558 1556 1554 1552 1550 1548 1547 1546 1544 1542 1541 1541 1540 1538 1537 1536 1534 1533 1531 1529 1528 1526 1524 1523 1521 1519
1537 1536 1540 1544 1548 1551 1554 1557 1559 1561 1562 1563 1564 1564 1563 1563 1561 1560 1558 1557 1555 1553 1551 1550 1548 1547 1545 1543 1542 1542 1541 1540 1539 1538 1536 1535 1534 1533 1531 1530 1528 1527 1525 1522
1534 1535 1537 1540 1545 1549 1552 1555 1557 1559 1561 1562 1563 1563 1563 1563 1562 1560 1559 1557 1555 1554 1552 1551 1549 1547 1546 1544 1543 1543 1542 1541 1540 1540 1539 1538 1536 1535 1534 1533 1531 1530 1528 1525
1534 1536 1538 1540 1543 1547 1550 1553 1556 1558 1560 1561 1562 1562 1562 1562 1561 1560 1559 1557 1556 1555 1553 1551 1550 1548 1546 1545 1545 1544 1543 1542 1541 1541 1540 1540 1539 1538 1536 1535 1533 1532 1530 1528
1533 1536 1538 1540 1543 1546 1549 1552 1554 1556 1558 1559 1560 1561 1561 1561 1560 1559 1558 1557 1556 1555 1554 1552 1550 1548 1547 1546 1545 1545 1544 1543 1542 1542 1542 1541 1540 1540 1539 1537 1536 1534 1532 1531
1532 1534 1537 1539 1541 1544 1547 1549 1552 1554 1556 1557 1558 1559 1559 1559 1559 1559 1558 1556 1556 1555 1553 1552 1550 1549 1547 1546 1546 1545 1544 1543 1543 1543 1543 1542 1542 1541 1540 1539 1537 1536 1534 1533
1528 1531 1534 1536 1539 1542 1544 1547 1549 1551 1553 1555 1556 1557 1557 1558 1558 1558 1557 1556 1555 1554 1553 1551 1549 1548 1547 1546 1546 1546 1544 1544 1543 1543 1543 1543 1543 1542 1541 1540 1539 1537 1536 1534
1525 1528 1531 1534 1536 1539 1542 1544 1547 1549 1551 1552 1553 1554 1555 1556 1556 1556 1555 1554 1554 1554 1552 1550 1549 1548 1547 1546 1546 1546 1545 1544 1544 1544 1544 1543 1543 1543 1542 1541 1540 1538 1537 1535
1522 1525 1528 1531 1534 1536 1539 1541 1544 1546 1548 1549 1550 1551 1553 1553 1553 1553 1553 1552 1552 1551 1549 1548 1548 1547 1547 1545 1545 1545 1545 1545 1544 1544 1543 1543 1543 1543 1542 1541 1541 1539 1538 1537
1520 1523 1525 1528 1531 1533 1536 1538 1540 1543 1544 1546 1547 1549 1550 1550 1551 1550 1550 1550 1550 1548 1547 1547 1546 1545 1545 1544 1544 1543 1544 1544 1544 1544 1543 1542 1542 1542 1542 1541 1541 1540 1539 1537
1517 1520 1522 1525 1527 1530 1533 1535 1537 1539 1541 1542 1544 1545 1546 1547 1548 1547 1547 1547 1547 1546 1545 1545 1544 1543 1542 1542 1542 1542 1542 1542 1543 1542 1542 1541 1541 1541 1541 1541 1540 1539 1539 1538
1514 1517 1519 1522 1524 1526 1529 1531 1533 1535 1537 1538 1540 1541 1543 1543 1544 1544 1545 1545 1544 1543 1543 1542 1542 1540 1540 1539 1539 1539 1539 1540 1540 1541 1540 1540 1540 1540 1540 1540 1539 1539 1538 1537
1512 1513 1516 1518 1520 1523 1525 1527 1530 1531 1533 1534 1536 1537 1538 1539 1540 1541 1542 1542 1541 1540 1540 1539 1539 1538 1537 1537 1536 1536 1537 1538 1538 1538 1538 1538 1538 1538 1538 1538 1538 1537 1537 1536
1509 1511 1512 1514 1517 1519 1521 1523 1526 1527 1528 1530 1532 1533 1535 1536 1536 1537 1538 1538 1538 1537 1537 1536 1536 1535 1535 1534 1534 1535 1535 1536 1536 1536 1536 1536 1536 1536 1536 1536 1536 1535 1535 1534
1507 1508 1509 1511 1513 1514 1517 1519 1521 1523 1524 1525 1527 1528 1530 1531 1532 1533 1534 1534 1534 1533 1533 1533 1533 1532 1532 1532 1532 1532 1533 1533 1533 1533 1533 1533 1533 1533 1533 1533 1533 1533 1533 1532
1505 1505 1506 1507 1509 1511 1513 1515 1516 1518 1519 1521 1522 1524 1525 1526 1527 1528 1529 1530 1530 1530 1530 1530 1529 1529 1529 1529 1529 1529 1529 1529 1529 1529 1529 1530 1530 1530 1530 1530 1530 1530 1530 1530
1504 1504 1504 1504 1505 1507 1509 1510 1512 1513 1514 1516 1517 1519 1520 1521 1522 1523 1524 1525 1525 1525 1526 1526 1526 1526 1526 1526 1525 1525 1525 1525 1526 1526 1525 1525 1526 1526 1526 1527 1527 1527 1527 1527